Date,TemperatureHighF,TemperatureAvgF,TemperatureLowF,DewpointHighF,DewpointAvgF,DewpointLowF,HumidityHigh,HumidityAvg,HumidityLow,PressureMaxIn,PressureMinIn,WindSpeedMaxMPH,WindSpeedAvgMPH,GustSpeedMaxMPH,PrecipitationSumIn
2013-2-1,37.4,31.0,20.5,25.0,11.6,2.3,74,46,26,30.14,29.54,0,0,0,0.00
2013-2-2,38.8,27.6,16.2,26.2,14.4,7.3,84,61,30,30.15,29.75,0,0,0,0.00
2013-2-3,45.3,35.3,28.6,30.8,24.3,16.8,84,65,46,29.74,29.55,0,0,0,0.00
2013-2-4,43.3,32.7,21.2,24.7,19.3,15.1,87,59,37,29.88,29.67,0,0,0,0.00
2013-2-5,59.7,46.9,38.8,36.4,31.2,24.5,70,55,39,29.67,29.54,0,0,0,0.00
2013-2-6,58.1,43.3,30.2,35.3,31.8,28.7,98,67,34,30.07,29.66,0,0,0,0.00
2013-2-7,47.8,38.6,30.9,37.3,29.9,25.8,98,72,52,30.14,29.89,0,0,0,0.10
2013-2-8,49.8,41.5,36.5,42.2,37.1,26.4,99,86,59,29.87,29.49,0,0,0,0.78
2013-2-9,50.4,37.1,26.8,26.0,21.3,15.4,88,56,27,30.12,29.68,0,0,0,0.00
2013-2-10,50.7,36.1,21.4,28.2,21.5,17.6,89,58,32,30.26,29.99,0,0,0,0.00
2013-2-11,60.8,51.0,38.7,56.6,48.3,28.6,99,91,59,29.99,29.52,4,0,0,0.04
2013-2-12,62.6,51.1,37.8,45.8,32.3,24.8,83,51,28,29.73,29.56,0,0,0,0.00
2013-2-13,48.4,43.9,37.0,42.4,36.3,28.7,98,76,47,29.65,29.34,0,0,0,0.06
2013-2-14,53.4,39.9,28.8,38.2,32.7,28.5,99,78,42,29.79,29.53,0,0,0,0.01
2013-2-15,64.9,46.5,29.8,37.3,32.3,28.2,98,64,26,29.78,29.62,6,0,0,0.00
2013-2-16,41.7,35.3,28.9,36.6,32.7,20.7,98,91,71,29.75,29.57,8,0,0,0.15
2013-2-17,37.9,27.7,21.2,20.9,11.6,3.0,87,53,30,29.99,29.60,0,0,0,0.02
2013-2-18,49.1,32.4,16.7,23.3,13.3,6.7,85,50,20,30.15,29.94,0,0,0,0.00
2013-2-19,47.8,40.3,32.5,47.2,34.5,19.9,99,81,51,29.96,29.51,0,0,0,0.10
2013-2-20,48.9,37.8,27.1,34.1,19.5,14.7,95,50,27,29.89,29.62,1,0,0,0.00
2013-2-21,46.2,34.6,22.8,20.4,17.3,14.8,78,50,33,30.05,29.88,0,0,0,0.02
2013-2-22,41.0,35.4,32.2,34.1,24.9,17.0,95,66,51,30.12,29.93,0,0,0,0.01
2013-2-23,43.3,38.8,35.1,41.3,38.0,34.2,99,97,92,29.92,29.55,0,0,0,0.12
2013-2-24,58.6,45.4,34.2,43.7,37.1,22.8,99,75,48,29.84,29.54,0,0,0,0.00
2013-2-25,46.2,35.2,26.1,25.6,22.2,18.8,85,61,39,29.97,29.84,0,0,0,0.00
2013-2-26,51.1,41.7,27.7,50.8,39.4,24.1,99,92,78,29.97,29.28,2,0,0,0.48
2013-2-27,61.3,49.1,35.8,49.0,40.1,32.9,99,74,43,29.43,29.27,3,0,0,0.00
2013-2-28,52.3,43.3,36.0,38.2,30.4,25.2,90,62,38,29.51,29.37,7,0,0,0.00